User: anonymous   Login
Location: Amsterdam
(30.7274°N, 84.4357°W)
Time: 07:46:22
(UTC+00:00)
Language:

DIWATA 2B (PO-101) - Orbit

View from above orbital plane
View from above orbital plane
View from above satellite
View from above satellite

Ground track
Ground track

The orbit is defined by the following mean orbital elements,

1 43678U          26069.98972360 +.00000000 +00000-0 +42794-3 0 00007
2 43678  98.1041 262.0798 0011929 122.9355 237.3016 14.99973503    08
Epoch (UTC): 10 March 2026 23:45:12
Eccentricity: 0.0011929
inclination: 98.1041°
perigee height: 559 km
apogee height: 575 km
right ascension of ascending node: 262.0798°
argument of perigee: 122.9355°
revolutions per day: 14.99973503
mean anomaly at epoch: 237.3016°

The dashed part of the orbit path shows where the satellite is in the earth's shadow,  

DLR